This is the latest recevied weather packets stored in our database for station/object EA7AVH-10. If no packets are shown the sender has not sent any weather packets the latest 10 day(s).
| Time | Temp. | Humidity | Pressure | Rain* | Wind** | Luminosity | Snow |
|---|---|---|---|---|---|---|---|
| 1777930352 | 15.56° C | 49% | 921.9 hPa | - | - | - | - |
| 1777929451 | 16.11° C | 48% | 921.7 hPa | - | - | - | - |
| 1777928551 | 16.11° C | 48% | 921.7 hPa | - | - | - | - |
| 1777927650 | 16.11° C | 48% | 921.7 hPa | - | - | - | - |
| 1777926749 | 16.11° C | 48% | 921.5 hPa | - | - | - | - |
| 1777925848 | 16.67° C | 48% | 921.3 hPa | - | - | - | - |
| 1777924947 | 16.67° C | 48% | 921.1 hPa | - | - | - | - |
| 1777924047 | 16.67° C | 47% | 920.9 hPa | - | - | - | - |
| 1777923146 | 17.22° C | 47% | 920.8 hPa | - | - | - | - |
| 1777922245 | 17.22° C | 46% | 920.5 hPa | - | - | - | - |
| 1777921344 | 17.78° C | 46% | 920.4 hPa | - | - | - | - |
| 1777920443 | 18.33° C | 45% | 920.2 hPa | - | - | - | - |
| 1777919543 | 19.44° C | 43% | 920 hPa | - | - | - | - |
| 1777918642 | 20° C | 42% | 919.9 hPa | - | - | - | - |
| 1777917741 | 21.11° C | 41% | 919.9 hPa | - | - | - | - |
| 1777916840 | 23.33° C | 42% | 920 hPa | - | - | - | - |
| 1777915939 | 22.78° C | 40% | 919.9 hPa | - | - | - | - |
| 1777915038 | 23.33° C | 40% | 919.7 hPa | - | - | - | - |
| 1777914157 | 22.78° C | 41% | 919.7 hPa | - | - | - | - |
| 1777913256 | 23.33° C | 40% | 919.7 hPa | - | - | - | - |
| 1777912355 | 22.78° C | 40% | 919.6 hPa | - | - | - | - |
| 1777911454 | 22.78° C | 40% | 919.6 hPa | - | - | - | - |
| 1777910554 | 22.22° C | 40% | 919.4 hPa | - | - | - | - |
| 1777909653 | 23.33° C | 39% | 919.3 hPa | - | - | - | - |
| 1777908752 | 23.33° C | 40% | 919.3 hPa | - | - | - | - |
* Rain since midnight (hover to see other rain measurements)
** Current wind speed in m/s (hover to see current wind gust speed)